Regional Weather Roundup
Issued by NWS

Home | Current Version | Previous Version | Text Only | Print | Product List | Glossary Off
Versions: 1 2 3 4 5 6 7 8 9 10 11 12 13 14 15 16 17 18 19 20 21 22 23 24 25 26 27 28 29 30 31 32 33 34 35 36 37 38 39 40 41 42 43 44 45 46 47 48 49 50

000
ASUS43 KBIS 180520
RWRND

NORTH DAKOTA REGIONAL WEATHER ROUNDUP
NATIONAL WEATHER SERVICE BISMARCK ND
1200 AM CDT FRI APR 18 2014

NOTE: "FAIR" INDICATES FEW OR NO CLOUDS BELOW 12,000 FEET WITH NO
SIGNIFICANT WEATHER AND/OR OBSTRUCTIONS TO VISIBILITY.


NDZ001>003-009>011-017-180600-
NORTHWEST NORTH DAKOTA

CITY           SKY/WX    TMP DP  RH WIND       PRES   REMARKS
WILLISTON      MOCLDY    39  26  59 SE10      30.00F
MINOT          CLOUDY    35  21  56 E13       30.12S
MINOT AFB      CLOUDY    34  22  61 SE15      30.11F
$$

NDZ018>021-031>035-040>046-180600-
SOUTHWEST NORTH DAKOTA

CITY           SKY/WX    TMP DP  RH WIND       PRES   REMARKS
BISMARCK       CLEAR     31  23  72 SE7       30.13F
DICKINSON      MOCLDY    35  24  64 SE14      29.99F
GARRISON         N/A     35  24  64 SE10      30.09F
HETTINGER ARPT MOCLDY    34  25  69 E12       30.01F
$$

NDZ004>008-012>016-024-026-027-054-180600-
NORTHEAST NORTH DAKOTA

CITY           SKY/WX    TMP DP  RH WIND       PRES   REMARKS
GRAND FORKS    CLOUDY    33  21  61 NE6       30.29F
GRND FRKS AFB  CLOUDY    33  17  51 E6        30.29F
DEVILS LAKE    CLOUDY    34  16  47 E16       30.22F
$$

NDZ022-023-025-028>030-036>039-047>053-180600-
SOUTHEAST NORTH DAKOTA

CITY           SKY/WX    TMP DP  RH WIND       PRES   REMARKS
FARGO          CLOUDY    34  20  56 NE8       30.28F
JAMESTOWN      CLOUDY    32  19  58 E9        30.21S
$$




USA.gov is the U.S. government's official web portal to all federal, state and local government web resources and services.